| time (UTC) | temp F | wind direction | speed MPH | gust MPH | rain 1hr in | rain 24hr in | rain mn in | humidity % | barometer mb |
| 20260903180107 | 77 | 84 | 7.0 | 18.0 | 0.00 | 0.00 | 0.00 | 25 | 1021.4 |
| 20260903174607 | 80 | 46 | 5.0 | 9.0 | 0.00 | 0.00 | 0.00 | 23 | 1021.4 |
| 20260903173104 | 80 | 231 | 1.0 | 7.0 | 0.00 | 0.00 | 0.00 | 21 | 1021.4 |
| 20260903171614 | 79 | 239 | 2.0 | 11.0 | 0.00 | 0.00 | 0.00 | 22 | 1021.5 |
| 20260903170107 | 79 | 210 | 1.0 | 10.0 | 0.00 | 0.00 | 0.00 | 22 | 1021.7 |
| 20260903164623 | 77 | 38 | 2.0 | 11.0 | 0.00 | 0.00 | 0.00 | 23 | 1021.6 |
| 20260903163105 | 77 | 20 | 3.0 | 9.0 | 0.00 | 0.00 | 0.00 | 23 | 1021.7 |
| 20260903161602 | 78 | 187 | 2.0 | 11.0 | 0.00 | 0.00 | 0.00 | 23 | 1021.5 |
| 20260903160129 | 76 | 0 | 2.0 | 14.0 | 0.00 | 0.00 | 0.00 | 26 | 1021.6 |
| 20260903154611 | 75 | 117 | 3.0 | 13.0 | 0.00 | 0.00 | 0.00 | 27 | 1021.7 |
| 20260903153108 | 74 | 274 | 5.0 | 11.0 | 0.00 | 0.00 | 0.00 | 27 | 1021.7 |
| 20260903151603 | 74 | 168 | 2.0 | 10.0 | 0.00 | 0.00 | 0.00 | 28 | 1021.7 |
| 20260903150108 | 73 | 238 | 4.0 | 10.0 | 0.00 | 0.00 | 0.00 | 30 | 1021.9 |
| 20260903144607 | 72 | 190 | 5.0 | 12.0 | 0.00 | 0.00 | 0.00 | 31 | 1021.7 |
| 20260903143112 | 71 | 101 | 5.0 | 11.0 | 0.00 | 0.00 | 0.00 | 32 | 1021.6 |
| 20260903141614 | 71 | 163 | 6.0 | 13.0 | 0.00 | 0.00 | 0.00 | 33 | 1021.6 |
| 20260903140109 | 70 | 127 | 4.0 | 12.0 | 0.00 | 0.00 | 0.00 | 34 | 1021.7 |
| 20260903134605 | 69 | 157 | 3.0 | 10.0 | 0.00 | 0.00 | 0.00 | 34 | 1021.6 |
| 20260903133108 | 69 | 120 | 2.0 | 11.0 | 0.00 | 0.00 | 0.00 | 35 | 1021.3 |
| 20260903131607 | 68 | 157 | 3.0 | 10.0 | 0.00 | 0.00 | 0.00 | 36 | 1021.3 |
| 20260903130105 | 66 | 188 | 1.0 | 6.0 | 0.00 | 0.00 | 0.00 | 37 | 1021.2 |
| 20260903124607 | 64 | 181 | 3.0 | 7.0 | 0.00 | 0.00 | 0.00 | 39 | 1021.0 |
| 20260903123107 | 64 | 180 | 3.0 | 10.0 | 0.00 | 0.00 | 0.00 | 40 | 1020.8 |
| 20260903121606 | 63 | 196 | 3.0 | 7.0 | 0.00 | 0.00 | 0.00 | 40 | 1020.7 |
| 20260903120107 | 63 | 203 | 2.0 | 8.0 | 0.00 | 0.00 | 0.00 | 41 | 1020.7 |
| 20260903114607 | 63 | 0 | 2.0 | 5.0 | 0.00 | 0.00 | 0.00 | 42 | 1020.5 |
| 20260903113103 | 62 | 218 | 0.0 | 4.0 | 0.00 | 0.00 | 0.00 | 43 | 1020.5 |
| 20260903111604 | 62 | 0 | 0.0 | 4.0 | 0.00 | 0.00 | 0.00 | 45 | 1020.4 |
| 20260903110106 | 62 | 202 | 2.0 | 9.0 | 0.00 | 0.00 | 0.00 | 44 | 1020.5 |
| 20260903104606 | 61 | 213 | 2.0 | 5.0 | 0.00 | 0.00 | 0.00 | 47 | 1020.6 |
| 20260903103106 | 60 | 243 | 0.0 | 4.0 | 0.00 | 0.00 | 0.00 | 47 | 1020.6 |
| 20260903101611 | 61 | 221 | 3.0 | 6.0 | 0.00 | 0.00 | 0.00 | 46 | 1020.5 |
| 20260903100104 | 61 | 0 | 0.0 | 5.0 | 0.00 | 0.00 | 0.00 | 46 | 1020.6 |
| 20260903094612 | 63 | 198 | 5.0 | 12.0 | 0.00 | 0.00 | 0.00 | 44 | 1020.7 |
| 20260903093114 | 60 | 191 | 2.0 | 5.0 | 0.00 | 0.00 | 0.00 | 46 | 1020.8 |
| 20260903091603 | 62 | 210 | 3.0 | 9.0 | 0.00 | 0.00 | 0.00 | 43 | 1020.9 |
| 20260903084601 | 62 | 200 | 2.0 | 9.0 | 0.00 | 0.00 | 0.00 | 42 | 1020.8 |
| 20260903083107 | 63 | 237 | 1.0 | 5.0 | 0.00 | 0.00 | 0.00 | 40 | 1020.8 |
| 20260903081603 | 62 | 186 | 1.0 | 5.0 | 0.00 | 0.00 | 0.00 | 40 | 1020.7 |
| 20260903080107 | 61 | 0 | 0.0 | 1.0 | 0.00 | 0.00 | 0.00 | 41 | 1020.8 |
| 20260903074608 | 63 | 0 | 0.0 | 2.0 | 0.00 | 0.00 | 0.00 | 41 | 1020.9 |
| 20260903073107 | 63 | 0 | 1.0 | 4.0 | 0.00 | 0.00 | 0.00 | 40 | 1020.8 |
| 20260903071611 | 64 | 253 | 0.0 | 2.0 | 0.00 | 0.00 | 0.00 | 41 | 1020.9 |
| 20260903070112 | 65 | 214 | 1.0 | 4.0 | 0.00 | 0.00 | 0.00 | 41 | 1021.0 |
| 20260903064608 | 64 | 0 | 0.0 | 1.0 | 0.00 | 0.00 | 0.00 | 42 | 1021.2 |
| 20260903063127 | 64 | 0 | 0.0 | 1.0 | 0.00 | 0.00 | 0.00 | 43 | 1021.4 |
| 20260903061608 | 64 | 0 | 0.0 | 0.0 | 0.00 | 0.00 | 0.00 | 43 | 1021.3 |
| 20260903060118 | 64 | 0 | 0.0 | 1.0 | 0.00 | 0.00 | 0.00 | 43 | 1021.1 |
| 20260903054611 | 64 | 0 | 0.0 | 0.0 | 0.00 | 0.00 | 0.00 | 44 | 1021.1 |
| 20260903053105 | 64 | 0 | 0.0 | 1.0 | 0.00 | 0.00 | 0.00 | 45 | 1021.2 |
| 20260903051602 | 64 | 0 | 0.0 | 3.0 | 0.00 | 0.00 | 0.00 | 44 | 1021.3 |
| 20260903050128 | 64 | 232 | 0.0 | 2.0 | 0.00 | 0.00 | 0.00 | 45 | 1021.3 |
| 20260903044606 | 65 | 0 | 0.0 | 1.0 | 0.00 | 0.00 | 0.00 | 45 | 1021.4 |
| 20260903043100 | 65 | 0 | 0.0 | 0.0 | 0.00 | 0.00 | 0.00 | 45 | 1021.7 |
| 20260903041603 | 65 | 0 | 0.0 | 0.0 | 0.00 | 0.00 | 0.00 | 45 | 1021.7 |
| 20260903040109 | 65 | 264 | 0.0 | 1.0 | 0.00 | 0.00 | 0.00 | 44 | 1021.7 |
| 20260903034603 | 66 | 0 | 0.0 | 0.0 | 0.00 | 0.00 | 0.00 | 43 | 1021.5 |
| 20260903033103 | 67 | 0 | 0.0 | 6.0 | 0.00 | 0.00 | 0.00 | 38 | 1021.4 |
| 20260903031604 | 66 | 122 | 0.0 | 2.0 | 0.00 | 0.00 | 0.00 | 40 | 1021.6 |
| 20260903030108 | 67 | 0 | 0.0 | 1.0 | 0.00 | 0.00 | 0.00 | 40 | 1021.4 |
| 20260903024600 | 69 | 0 | 0.0 | 3.0 | 0.00 | 0.00 | 0.00 | 36 | 1021.5 |
| 20260903023100 | 69 | 0 | 1.0 | 4.0 | 0.00 | 0.00 | 0.00 | 35 | 1021.3 |
| 20260903021609 | 69 | 124 | 2.0 | 6.0 | 0.00 | 0.00 | 0.00 | 36 | 1020.9 |
| 20260903020106 | 69 | 0 | 1.0 | 10.0 | 0.00 | 0.00 | 0.00 | 36 | 1020.8 |
| 20260903014612 | 70 | 0 | 3.0 | 9.0 | 0.00 | 0.00 | 0.00 | 37 | 1020.7 |
| 20260903013104 | 70 | 213 | 6.0 | 12.0 | 0.00 | 0.00 | 0.00 | 37 | 1020.6 |
| 20260903011611 | 71 | 181 | 5.0 | 13.0 | 0.00 | 0.00 | 0.00 | 36 | 1020.4 |
| 20260903010106 | 71 | 153 | 1.0 | 7.0 | 0.00 | 0.00 | 0.00 | 35 | 1020.3 |
| 20260903004603 | 71 | 0 | 0.0 | 4.0 | 0.00 | 0.00 | 0.00 | 38 | 1020.3 |
| 20260903003103 | 72 | 229 | 0.0 | 4.0 | 0.00 | 0.00 | 0.00 | 38 | 1020.4 |
| 20260903001607 | 72 | 195 | 2.0 | 6.0 | 0.00 | 0.00 | 0.00 | 35 | 1020.7 |
| 20260903000107 | 72 | 236 | 2.0 | 6.0 | 0.00 | 0.00 | 0.00 | 35 | 1020.5 |
| 20260902234606 | 73 | 186 | 0.0 | 3.0 | 0.00 | 0.00 | 0.00 | 38 | 1020.6 |
| 20260902233102 | 72 | 321 | 0.0 | 4.0 | 0.00 | 0.00 | 0.00 | 38 | 1020.9 |
| 20260902231609 | 70 | 285 | 3.0 | 12.0 | 0.00 | 0.00 | 0.00 | 39 | 1021.1 |
| 20260902230109 | 69 | 228 | 3.0 | 9.0 | 0.00 | 0.00 | 0.00 | 39 | 1021.8 |
| 20260902224606 | 73 | 218 | 6.0 | 19.0 | 0.00 | 0.00 | 0.00 | 34 | 1021.7 |
| 20260902223109 | 77 | 209 | 2.0 | 9.0 | 0.00 | 0.00 | 0.00 | 25 | 1020.8 |
| 20260902221602 | 78 | 79 | 4.0 | 8.0 | 0.00 | 0.00 | 0.00 | 24 | 1020.3 |
| 20260902220109 | 79 | 13 | 5.0 | 13.0 | 0.00 | 0.00 | 0.00 | 23 | 1020.1 |
| 20260902214606 | 78 | 44 | 2.0 | 8.0 | 0.00 | 0.00 | 0.00 | 24 | 1020.2 |
| 20260902213102 | 78 | 40 | 3.0 | 8.0 | 0.00 | 0.00 | 0.00 | 24 | 1020.5 |
| 20260902211604 | 78 | 108 | 4.0 | 12.0 | 0.00 | 0.00 | 0.00 | 24 | 1020.7 |
| 20260902210105 | 78 | 18 | 4.0 | 11.0 | 0.00 | 0.00 | 0.00 | 25 | 1021.0 |
| 20260902204604 | 78 | 40 | 5.0 | 12.0 | 0.00 | 0.00 | 0.00 | 25 | 1021.2 |
| 20260902203102 | 76 | 94 | 3.0 | 6.0 | 0.00 | 0.00 | 0.00 | 27 | 1021.5 |
| 20260902201606 | 75 | 55 | 2.0 | 10.0 | 0.00 | 0.00 | 0.00 | 28 | 1021.8 |
| 20260902200117 | 75 | 15 | 2.0 | 10.0 | 0.00 | 0.00 | 0.00 | 27 | 1022.0 |
| 20260902194607 | 76 | 94 | 2.0 | 10.0 | 0.00 | 0.00 | 0.00 | 27 | 1022.1 |
| 20260902193107 | 75 | 15 | 6.0 | 12.0 | 0.00 | 0.00 | 0.00 | 27 | 1022.1 |
| 20260902191606 | 77 | 0 | 4.0 | 11.0 | 0.00 | 0.00 | 0.00 | 27 | 1022.2 |
| 20260902190106 | 77 | 18 | 2.0 | 11.0 | 0.00 | 0.00 | 0.00 | 27 | 1022.2 |
| 20260902184609 | 77 | 38 | 5.0 | 12.0 | 0.00 | 0.00 | 0.00 | 27 | 1022.6 |
| 20260902183108 | 76 | 28 | 3.0 | 12.0 | 0.00 | 0.00 | 0.00 | 28 | 1022.8 |
| 20260902181603 | 75 | 103 | 4.0 | 11.0 | 0.00 | 0.00 | 0.00 | 29 | 1023.1 |